Weather History for KSNT - July, 2013

Change the Weather History Date:

Monday, July 8, 2013

  Actual Average Record
Temperature  
Mean Temperature 59 °F 56 °F  
Max Temperature 80 °F 76 °F 88 °F (2014)
Min Temperature 37 °F 36 °F 21 °F (1981)
Degree Days  
Heating Degree Days 6 9  
Month to date heating degree days 26 81  
Since 1 June heating degree days 395 535  
Since 1 July heating degree days 26 81  
Cooling Degree Days 0 0  
Month to date cooling degree days 13 0  
Year to date cooling degree days 16 0  
Since 1 June cooling degree days 16 0  
Growing Degree Days 8 (Base 50)    
Moisture  
Dew Point 35 °F    
Average Humidity 52    
Maximum Humidity 85    
Minimum Humidity 19    
Precipitation  
Precipitation 0.00 in 0.02 in 0.50 in (1918)
Month to date precipitation 0.27 0.22  
Year to date precipitation 6.20 10.14  
Sea Level Pressure  
Sea Level Pressure 29.90 in    
Wind  
Wind Speed 4 mph (WNW)    
Max Wind Speed 17 mph    
Max Gust Speed 26 mph    
T = Trace of Precipitation, MM = Missing Value Source: NWS Daily Summary

Daily Weather History Graph

Daily Weather History Graph

Search for Another Location

Airport or City:

Trip Planner

Search our weather history database for the weather conditions in past years. The results will help you decide how hot, cold, wet, or windy it might be!

Date:

Astronomy

Jul. 08, 2013 Rise Set
Actual Time 6:04 AM MDT 9:24 PM MDT
Civil Twilight 5:29 AM MDT 10:00 PM MDT
Nautical Twilight 4:42 AM MDT 10:46 PM MDT
Astronomical Twilight 3:44 AM MDT 11:44 PM MDT
Moon 6:41 AM MDT (7/8) 9:24 PM MDT (7/8)
Length of Visible Light 16h 31m
Length of Day
15h 19m
New Moon, 0% of the Moon is Illuminated
Jul 8
New Moon
Jul 15
First Quarter
Jul 22
Full
Jul 29
Last Quarter
Aug 6
New

Hourly Weather History & Observations

Time (MDT) Temp. Windchill Dew Point Humidity Pressure Visibility Wind Dir Wind Speed Gust Speed Precip Events Conditions
12:51 AM 50.0 °F - 33.1 °F 52% 29.80 in - Calm Calm - N/A   Unknown
1:51 AM 45.0 °F - 33.1 °F 63% 29.82 in - Calm Calm - N/A   Unknown
2:51 AM 43.0 °F - 33.1 °F 68% 29.83 in - Calm Calm - N/A   Unknown
3:51 AM 41.0 °F - 33.1 °F 73% 29.84 in - Calm Calm - N/A   Unknown
4:51 AM 39.0 °F - 33.1 °F 79% 29.86 in - Calm Calm - N/A   Unknown
5:51 AM 37.0 °F - 32.0 °F 82% 29.87 in - Calm Calm - N/A   Unknown
6:51 AM 37.9 °F - 34.0 °F 86% 29.89 in - Calm Calm - N/A   Unknown
7:51 AM 43.0 °F 40.3 °F 36.0 °F 76% 29.88 in - East 4.6 mph - N/A   Unknown
8:51 AM 48.9 °F - 39.0 °F 69% 29.89 in - Calm Calm - N/A   Unknown
9:51 AM 55.9 °F - 37.9 °F 51% 29.91 in - NW 5.8 mph - N/A   Unknown
10:51 AM 64.0 °F - 41.0 °F 43% 29.90 in - NNE 3.5 mph - N/A   Unknown
11:51 AM 75.0 °F - 35.1 °F 23% 29.87 in - SSW 10.4 mph 23.0 mph N/A   Unknown
12:51 PM 75.0 °F - 35.1 °F 23% 29.88 in - WSW 4.6 mph 18.4 mph N/A   Unknown
1:51 PM 77.0 °F - 34.0 °F 21% 29.90 in - SSW 9.2 mph 21.9 mph N/A   Unknown
2:51 PM 79.0 °F - 36.0 °F 21% 29.90 in - WNW 12.7 mph 18.4 mph N/A   Unknown
3:51 PM 79.0 °F - 35.1 °F 20% 29.91 in - West 9.2 mph 18.4 mph N/A   Unknown
4:51 PM 79.0 °F - 33.1 °F 19% 29.92 in - Variable 5.8 mph - N/A   Unknown
5:51 PM 78.1 °F - 32.0 °F 19% 29.93 in - NE 10.4 mph 16.1 mph N/A   Unknown
6:51 PM 78.1 °F - 32.0 °F 19% 29.93 in - North 8.1 mph - N/A   Unknown
7:51 PM 75.0 °F - 30.9 °F 20% 29.94 in - NW 4.6 mph - N/A   Unknown
8:51 PM 68.0 °F - 39.0 °F 35% 29.96 in - Calm Calm - N/A   Unknown
9:51 PM 60.1 °F - 35.1 °F 39% 29.99 in - SSW 5.8 mph - N/A   Unknown
10:51 PM 53.1 °F - 35.1 °F 50% 30.00 in - Calm Calm - N/A   Unknown
11:51 PM 48.9 °F - 34.0 °F 56% 30.00 in - Calm Calm - N/A   Unknown